{"data":{"norad_id":62282,"epoch":"2026-09-21T04:56:46.139712Z","epoch_age_seconds":116596,"freshness":"FRESH","line1":"1 62282U 24237R   26264.20608958  .00008270  00000+0  30968-3 0  9991","line2":"2 62282  43.0010 192.1854 0001207 280.5989  79.4727 15.27583651101002","mean_motion":15.27583651,"eccentricity":0.0001207,"inclination_deg":43.001,"raan_deg":192.1854,"arg_perigee_deg":280.5989,"mean_anomaly_deg":79.4727,"bstar":0.00030968,"rev_number":10100,"period_min":94.266523411489,"perigee_km":482.21001981173,"apogee_km":483.86630749624,"semimajor_km":6861.175163654,"source":"CELESTRAK","updated_at":"2026-09-22T09:00:49.568777Z"}}